Погода в Булдаке

Россия / Курганская область     55°02′15″N   66°07′13″E
темп.,
°C
ветер,
м/с
пор.,
м/с
влажн.,
%
обл.,
%
осадки,
мм/ч
давл.,
гПа
погр.,
м
20 сентября, пн
пн2023:00+4з7146510 0.0 1012604
02:00+3зсз71270100 0.0 1014581
05:00+2зсз61173100 0.0 1017613
08:00+2зсз71073100 0.0 1018491
11:00+5сз685992 0.0 10201079
14:00+6сз7856100 0.1 10211416
17:00+6ссз6858100 0.2 10221287
20:00+4ссз4873100 0.1 1024464
21 сентября, вт
вт2123:00+1сз48925 0.1 1026208
02:000сз37965 0.0 1027163
05:00−1сз359757 0.0 1027105
08:00+2сз359187 0.0 1028317
11:00+4сз4471100 0.1 1028919
14:00+6зсз445798 0.0 10271165
17:00+7зсз35475 0.0 10251195
20:00+3зсз22635 0.0 102517
22 сентября, ср
ср2223:00+2ссз117216 0.0 102510
02:00+2зюз3472100 0.0 102455
05:00+2зюз3768100 0.0 1023132
08:00+4з485480 0.0 1023260
11:00+9сз4647100 0.0 1022739
14:00+11ссз45415 0.0 10221531
17:00+10ссв6651100 0.0 10221115
20:00+7св376795 0.0 1024360
23 сентября, чт
чт2323:00+6ссв2675100 0.0 1025630
02:00+5с4685100 0.0 1025725
05:00+2с379621 0.0 1027200
08:00+4с4782100 0.0 1029677
11:00+6ссв455733 0.0 10301155
14:00+9св34425 0.0 10301392
17:00+9св22405 0.0 10311287
20:00+5вюв22550 0.0 103210
24 сентября, пт
пт2423:00+4ююв22600 0.0 103310
02:00+2ююз22665 0.0 103322
05:00+1ююз336924 0.0 103325
08:00+3юз3463100 0.0 1034131
11:00+8ююз3447100 0.0 1033621
14:00+11ююз4536100 0.0 10321031
17:00+11ююз453697 0.0 1031997
20:00+6ююз345072 0.0 103053